FENGYUN 1C DEB

Satellite information

Favourite Embed

Satellite Type and Status

DEBRISIN ORBIT

Key statistics

Satellite FENGYUN 1C DEB at a glance.

Uptime

9495

Days in orbit

Revolutions

≈ 14.8

Per day

Orbit

SSO

Sun Synchronous Orbit

Inclination

99.2

Latest

Satellite identification and parameters

Extended collection of information and parameters for FENGYUN 1C DEB.

Object identification

Identified? True

Debris? True

Object name: FENGYUN 1C DEB

International designator: 1999-025QY

Object number (NORAD): 30095

Object ID (CCSDS): 30095

Country: PEOPLES REPUBLIC OF CHINA (PRC)

Current information (Y/N): Y

RCS size: SMALL

Orbital parameters

Period: 97.613 minutes

Inclination: 99.2325 deg

SMA: 7022.609 km

Apoapsis: 772.932 km

Periapsis: 516.017 km

RAAN: 17.2236 deg

Eccentricy: 0.018292

Argument of periapsis: 294.585 deg

Mean anomaly: 63.639 deg

Mean motion: 14.75213912 rev/day

Mean motion (dot): 0.00012173 rev/day2

B* drag term: 0.0013778 1/REarth

Two-line elements (TLE)

Creation date: May 8, 2025, 3:01 a.m.

Reference frame: TEME

Reference center: EARTH

Epoch: May 7, 2025, 3:27 p.m. UTC

TLE line 0: 0 FENGYUN 1C DEB

TLE line 1: 1 30095U 99025QY 25127.64377158 .00012173 00000-0 13778-2 0 9992

TLE line 2: 2 30095 99.2325 17.2236 0182920 294.5850 63.6390 14.75213912960990

Live tracking on map

Real-time ground track for satellite FENGYUN 1C DEB.

In-orbit conjunctions

A list of the most updated potential collisions computed for object FENGYUN 1C DEB.

Target Orbit TCA Probability of collision Miss distance Type
COROT SSO 2025-02-08 07:11:24 0.0003041218 902.0 (m) PAYLOAD
CZ-6A DEB LEO 2024-12-14 09:15:21 0.0001169425 645.0 (m) DEBRIS
CZ-6A DEB LEO 2024-10-26 19:03:29 0.0001611039 443.0 (m) DEBRIS
CZ-6A DEB LEO 2024-10-21 12:54:11 0.0003665024 270.0 (m) DEBRIS
CZ-4 DEB SSO 2024-09-28 12:49:28 0.0002199664 697.0 (m) DEBRIS

Associated space launch

Chinese polar orbiting meteorological satellite

FENGYUN 1C DEB was lifted into orbit during the mission ‘Long March 4B | Feng Yun 1C’, on board a Long March 4B space rocket.

The launch took place on May 10, 1999, 1:33 a.m. from Launch Complex 7.

For more information about the launch, click the button.

Launch to space Long March 4B | Feng Yun 1C
Long March 4B | Feng Yun 1C

Agency: N/A

Status: Launch Successful

Launch date: May 10, 1999, 1:33 a.m. UTC

Rocket: Long March 4B

Launch pad: Launch Complex 7

Location: Taiyuan Satellite Launch Center, People's Republic of China

...

Latest news about this satellite

There are no fresh news available about this satellite. Check back as we update our databases every day.


Newsletter sign-up

Weekly statistics, charts and insights to help you stay on top of the space industry.